www.pogodaiklimat.ru

АРХИВ ПОГОДЫ в Юкайе

Время (UTC), дата Ветер
(напр.,м/с)
 
Видим.   Явления Облачность Т
(С)
Тd
(С)
f
(%)
Тe
(С)
Тes
(С)
Комфортность

P
(гПа)

Po
(гПа)
Тmin
(С)
Tmax
(С)
R
(мм)
SD
(см)
01:56 25.05 С  16 км    ясно  +18.3  +9.4  56  +19  +20    1012.5  990.5         
02:56 25.05 С  16 км    ясно  +16.7  +9.4  62  +17  +17    1012.4  990.5         
03:56 25.05   16 км    ясно  +15.0  +10.0  72  +15  +15    1012.5  990.8         
04:56 25.05   16 км    ясно  +12.8  +9.4  80  +12  +12    1012.1  990.2  +12.8  +24.4     
05:56 25.05   16 км    ясно  +12.2  +9.4  83  +12  +12    1011.6  989.8         
06:56 25.05 ЮЗ  16 км    ясно  +11.7  +8.9  83  +11  +11    1011.3  989.5         
07:56 25.05   16 км    ясно  +11.7  +7.8  77  +11  +11    1011.0  989.2         
08:56 25.05   16 км    ясно  +10.6  +7.2  79  +10  +10    1010.2  988.5         
09:56 25.05   16 км    ясно  +10.6  +6.7  77  +10  +10    1009.8  988.2         
10:56 25.05 С  16 км    ясно  +10.6  +6.7  77  +8  +8    1009.8  988.2  +8.9  +13.3     
11:56 25.05 СВ  16 км    ясно  +9.4  +6.1  80  +7  +7    1009.6  987.8         
12:56 25.05 СВ  16 км    ясно  +10.6  +6.1  74  +10  +10    1009.9  988.2         
13:56 25.05 С  16 км    ясно  +12.2  +5.0  61  +11  +11    1010.1  988.2         
14:56 25.05 нст  16 км    ясно  +13.9  +5.0  55  +13  +16    1009.8  987.8         
15:56 25.05   16 км    ясно  +15.0  +5.0  51  +15  +24    1009.3  987.5         
16:56 25.05   16 км    ясно  +17.8  +5.6  45  +18  +33  опасность
простуды 
1009.2  987.5  +8.3  +17.8     
17:56 25.05 нст  16 км    ясно  +20.6  +5.0  36  +22  +34  комфорт  1008.9  987.2         
18:56 25.05     16 км    ясно  +21.1  +5.0  35  +22  +47  комфорт  1008.4  986.8         
19:56 25.05 СЗ  16 км    ясно  +23.9  +5.6  31  +24  +39  комфорт  1007.9  986.2         
20:56 25.05 С  7
{9} 
16 км    ясно  +23.9  +6.1  32  +24  +28  комфорт  1007.3  985.5         
21:56 25.05 СЗ  6
{9} 
16 км    ясно  +23.9  +6.7  33  +24  +29  комфорт  1007.1  985.5         
22:56 25.05 нст  16 км    ясно  +23.3  +6.7  34  +24  +34  комфорт  1006.9  985.2  +17.8  +24.4     
23:56 25.05 СЗ  16 км    ясно  +22.2  +5.6  34  +23  +27  комфорт  1006.4  984.9         
00:56 26.05 С  16 км    ясно  +19.4  +6.1  42  +20  +22    1006.5  984.9         
01:56 26.05     16 км    ясно  +17.8  +6.7  48  +18  +20    1006.9  985.2         
02:56 26.05 С  16 км    ясно  +15.0  +5.6  53  +14  +14    1007.2  985.5         
03:56 26.05   16 км    10/0 2850 м
[средняя] 
+14.4  +6.1  57  +14  +14    1006.9  985.2         
04:56 26.05 СЗ  7
{11} 
16 км    10/8 1290 м
[средняя] 
+13.3  +6.1  62  +11  +11    1006.8  985.2  +13.3  +23.3     
05:56 26.05 СЗ  6
{9} 
16 км    10/10 1020 м  +12.8  +5.6  62  +10  +10    1006.3  984.9         
06:56 26.05 СЗ  8
{12} 
16 км    10/0 3000 м
[средняя] 
+11.7  +5.0  63  +8  +8    1005.6  983.9         
07:56 26.05 СЗ  8
{11} 
16 км    8/5 1950 м
[средняя] 
+11.7  +4.4  61  +8  +8    1005.8  984.2         
08:56 26.05 СЗ  7
{12} 
16 км    10/10 1170 м  +11.1  +4.4  63  +8  +8    1005.8  984.2         
09:56 26.05 З  5
{10} 
16 км    10/10 1230 м  +10.6  +5.0  68  +7  +7    1005.3  983.9         
10:56 26.05 СЗ  16 км    10/10 840 м  +10.0  +5.0  71  +6  +6    1005.4  983.9  +10.0  +13.3     
11:27 26.05 СЗ  7
{10} 
16 км    10/8 750 м
[средняя] 
+10.0  +4.4  68  +6  +6      983.9         
11:56 26.05 СЗ  16 км    10/10 840 м  +10.0  +4.4  68  +7  +7    1005.6  984.2         
12:56 26.05 СЗ  4
{8} 
16 км    10/2 1050 м
[средняя] 
+10.6  +4.4  65  +8  +8    1006.0  984.2         
13:56 26.05 СЗ  16 км    10/8 780 м
[средняя] 
+10.6  +4.4  65  +8  +8    1006.5  984.9         
14:56 26.05 СЗ  6
{10} 
16 км    10/5 1230 м
[средняя] 
+11.7  +4.4  61  +9  +9    1006.9  985.2         
15:56 26.05 СЗ  6
{10} 
16 км    10/10 1230 м  +11.7  +4.4  61  +9  +9    1007.4  985.5         
16:56 26.05 СЗ  6
{10} 
16 км    10/10 1200 м  +12.8  +4.4  57  +10  +10    1007.8  985.9  +10.0  +12.8     
17:56 26.05 С  4
{8} 
16 км    10/10 990 м  +13.9  +4.4  53  +12  +12    1008.2  986.2         
18:56 26.05 СЗ  16 км    10/10 1080 м  +15.0  +3.9  47  +14  +14    1008.5  986.8         
19:56 26.05 нст  16 км    10/10 1110 м  +16.1  +5.0  48  +16  +16    1009.0  987.2         
20:56 26.05 нст  16 км    2/2 1350 м  +16.1  +3.9  44  +16  +29  опасность
простуды 
1009.1  987.5         
21:56 26.05 ЮВ  16 км    10/10 1500 м  +15.0  +5.0  51  +14  +14    1010.1  988.2         
22:56 26.05 З  16 км    10/10 1110 м  +15.0  +6.1  55  +14  +14    1010.6  988.8  +12.2  +16.7     
23:56 26.05 С  16 км    10/10 1230 м  +16.1  +5.6  50  +16  +16    1011.1  989.2         

 

Местоположение метеостанции Ukiah Municipal Airport: широта 39.1258 долгота -123.2008 высота над уровнем моря 187 м.

В архиве по умолчанию представлена погода в Юкайе за последние 1-2 суток. Обновление информации о фактической погоде в базе происходит ежечасно! Архивные данные за месяц целиком и за предыдущие месяцы Вы можете получить, выбрав интересующий диапазон дат из раскрывающегося списка и нажав кнопку "Ввод!".

Внимание! Архив погоды МЕТАР в базе сайта в настоящее время начинается c 1 января 2011 г. Нет смысла пытаться выбрать более раннюю дату.

Внимание! Время в таблицах - всемирное. Для получения местного времени необходимо прибавить поправку, которая в Юкайе равна -8 ч.

Ветер - указаны скорость ветра в м/с и направление, откуда дует ветер: С - северный, СВ - северо-восточный, В - восточный, ЮВ - юго-восточный, Ю - южный, ЮЗ - юго-западный, З - западный, СЗ - северо-западный.
Видимость - горизонтальная дальность видимости в метрах или километрах. При видимости от 1 до 10 км при отсутствии осадков обычно наблюдается дымка, при ухудшении видимости до 1 км и менее - туман. В сухую погоду видимость может ухудшаться дымом, пылью или мглою.
Атмосферные явления - указаны явления, наблюдавшиеся в указанный момент времени.
Облачность - указаны через наклонную черту верхняя и нижняя облачность в баллах и высота нижней границы облаков в метрах. Внимание: облачность, как и прочие метеорологические величины в США измеряются автоматическими метеостанциями. Указанные значения в баллах носят условный характер и показывают процент времени, в течение которого, в среднем, лазерный луч высотомера отражался от облаков обратно.
T - Температура воздуха - температура, измеренная на высоте 2 м над землей.
Td - Температура точки росы - температура, при понижении до которой содержащийся в воздухе водяной пар достигнет насыщения.
f - Относительная влажность воздуха - влажноcть воздуха, измеренная на высоте 2 м над землей.
Te - Эффективная температура - температура, которую ощущает одетый по сезону человек в тени. Характеристика душности погоды. При расчете учитывается влияние влажности воздуха и скорости ветра на теплоощущения человека.
Tes - Эффективная температура на солнце - температура, которую ощущает человек, с поправкой на солнечный нагрев. Характеристика знойности погоды. Зависит от высоты солнца над горизонтом, облачности и скорости ветра. Ночью, в пасмурную погоду, а также при ветре 12 м/с и более поправка равна нулю.
P - Атмосферное давление - приведенное к уровню моря атмосферное давление.
Po - Атмосферное давление - измеренное на уровне метеостанции атмосферное давление.
Tmin - Минимальная температура - минимум температуры воздуха на высоте 2 м над землей.
Tmax - Максимальная температура - максимум температуры воздуха на высоте 2 м над землей.
R - Количество осадков - Количество выпавших осадков за 3 или 6 часов, мм.
SD - Снежный покров - Высота снежного покрова, см.